Weather in Podvislovo

Russia / Ryazan Oblast     53°49′27″N   40°05′25″E
temp.,
°C
wind,
m/s
gust,
m/s
humid.,
%
clouds,
%
prec.,
mm/h
press.,
hPa
HPBL,
m
25 february, thu
thu2500:00−15ssw5994100 0.4 1032365
03:00−13ssw61094100 0.6 1029386
06:00−11ssw61094100 0.6 1026361
09:00−8ssw61195100 2.2 1022399
12:000sw81397100 2.3 1018567
15:00+2w714100100 3.1 1015437
18:00+2wnw513100100 0.0 1015397
21:00+1w4899100 0.0 1016202
26 february, fri
fri2600:00+1w3999100 0.0 1015213
03:00+2w51099100 0.0 1016247
06:00+2w51299100 0.2 1014293
09:00+2w614100100 0.4 1013386
12:00+3wsw613100100 0.0 1011309
15:00+2wsw614100100 0.0 1009445
18:00+2wsw716100100 0.1 1006515
21:00+2w61596100 0.1 1006546
27 february, sat
sat2700:00+2w6159389 0.1 1005577
03:000w6148991 0.1 1005492
06:00+1w6119796 0.1 1004560
09:00+1w6119698 0.1 1004588
12:00+1w5119998 0.1 1003676
15:00+1wnw6129999 0.1 1003674
18:000nw7139791 0.3 1004593
21:00−3n599296 0.5 1008544
28 february, sun
sun2800:00−7n4994100 0.1 1009344
03:00−9nne3694100 0.1 1012190
06:00−7nnw3894100 0.1 1013599
09:00−9nnw489395 0.1 1015444
12:00−7nnw579197 0.0 1016504
15:00−5nnw589099 0.1 1017657
18:00−6nnw389598 0.1 1018241
21:00−7n349694 0.1 102176
1 march, mon
mon100:00−8nnw369597 0.1 1023164
03:00−9nnw369690 0.1 1024114
06:00−9nnw339772 0.0 102551
09:00−8nnw379673 0.1 1027247
12:00−5nnw359093 0.0 1028520
15:00−3wnw358896 0.1 1028596
18:00−6w349298 0.0 102785
21:00−7wsw489394 0.0 1026174